Regional Weather Roundup
Issued by NWS State College, PA

Home | Current Version | Previous Version | Text Only | Print | Product List | Glossary On
Versions: 1 2 3 4 5 6 7 8 9 10 11 12 13 14 15 16 17 18 19 20 21 22 23 24 25 26 27 28 29 30 31 32 33 34 35 36 37 38 39 40 41 42 43 44 45 46 47 48 49 50
000
ASUS41 KCTP 280410
RWRCTP

REGIONAL WEATHER ROUNDUP
NATIONAL WEATHER SERVICE STATE COLLEGE PA
1200 AM EDT THU AUG 28 2014

Note: "fair" indicates few or no clouds below 12,000 feet with no
significant weather and/or obstructions to visibility.

* = STATION THAT DOES NOT REPORT PRECIPITATION /E.G. RAIN...SNOW...ETC/
    THUNDER OR FOG.

PAZ002>004-007>009-013>016-020>023-029>032-280500-
WESTERN PENNSYLVANIA

CITY           SKY/WX    TMP DP  RH WIND       PRES   REMARKS
ERIE           CLEAR     67  54  63 N12       30.09S
MEADVILLE      PTCLDY    61  54  77 N5        30.10S
FRANKLIN*      PTCLDY    61  55  82 NW3       30.11S
NEW CASTLE     FAIR      63  60  90 CALM      30.11S
BEAVER COUNTY  NOT AVBL
BUTLER*        MOCLDY    64  57  77 NW5       30.10S
PITTSBURGH INT CLOUDY    68  59  73 N10       30.08S
PITTSBURGH     MOCLDY    68  60  75 N12G20    30.07R
INDIANA*       CLEAR     66  63  88 N5        30.11R
LATROBE        CLOUDY    70  70 100 NW3       30.07R
WASHINGTON CO* PTCLDY    66  63  88 NW3       30.08S
$$

PAZ004>006-010>012-017>019-024>028-033>037-041-042-045-046-049>053-280500-
CENTRAL PENNSYLVANIA

CITY           SKY/WX    TMP DP  RH WIND       PRES   REMARKS
BRADFORD       CLEAR     58  55  90 N6        30.09R
DUBOIS         PTCLDY    62  59  90 NW8       30.07S
CLEARFIELD     PTCLDY    64  60  87 N6        30.06R
JOHNSTOWN      MOCLDY    66  63  90 NW14      30.08R
ALTOONA        MOCLDY    70  67  90 NE3       30.04R
STATE COLLEGE  PTCLDY    70  63  77 N5        30.02R
WILLIAMSPORT   PTCLDY    74  61  63 N3        29.97S
SELINSGROVE    MOCLDY    70  68  93 CALM      29.97R
FT INDIANTOWN  MOCLDY    73  72  96 VRB6      29.94S
CAPITAL CITY   PTCLDY    79  70  74 NW7       29.93R
HARRISBURG     MOCLDY    79  70  74 N7        29.92R
YORK           PTCLDY    72  69  90 NW6       29.92F
$$

PAZ038>040-043-044-047-048-054-055-060>062-067>071-280500-
EASTERN PENNSYLVANIA

CITY           SKY/WX    TMP DP  RH WIND       PRES   REMARKS
SCRANTON       CLOUDY    73  63  70 N8        29.98S
MOUNT POCONO   CLOUDY    68  62  81 NW7       29.99S
ALLENTOWN      MOCLDY    75  69  81 CALM      29.92R
QUAKERTOWN*    MOCLDY    75  68  78 MISG      29.92S
READING        MOCLDY    75  66  73 N5        29.92R
LANCASTER      PTCLDY    73  68  84 CALM      29.92S
COATESVILLE    MOCLDY    72  72 100 NW6       29.93S
POTTSTOWN      PTCLDY    76  66  71 NW6       29.92S
BLUE BELL      PTCLDY    77  68  73 CALM      29.89S
DOYLESTOWN     PTCLDY    76  69  79 CALM      29.90R
WILLOW GROVE   NOT AVBL
NORTH PHILA    PTCLDY    80  64  58 W9        29.89F
PHILADELPHIA   PTCLDY    77  67  71 W8        29.89F
$$


USA.gov is the U.S. government's official web portal to all federal, state and local government web resources and services.